Weather Roundup
Issued by NWS Springfield, MO

Home | Current Version | Previous Version | Text Only | Print | Product List | Glossary On
Versions: 1 2 3 4 5 6 7 8 9 10 11 12 13 14 15 16 17 18 19 20 21 22 23 24 25 26 27 28 29 30 31 32 33 34 35 36 37 38 39 40 41 42 43 44 45 46 47 48 49 50
000
NZUS99 KSGF 252059
HRRSGF

HOURLY WEATHER
NATIONAL WEATHER SERVICE SPRINGFIELD MO
300 PM CST SUN JAN 25 2015

......SGF CWA......

CITY           SKY/WX    TMP DP  RH WIND       PRES   REMARKS
SPRINGFIELD    CLOUDY    38  34  85 NW16G22   29.81R WCI  29
JOPLIN         CLOUDY    42  32  67 NW21G33   29.91R
WEST PLAINS    CLOUDY    41  33  73 W12G30    29.73R
ROLLA          CLOUDY    37  34  89 W21G28    29.69R WCI  26
OSAGE BEACH    CLOUDY    37  34  87 W7G17     29.76R WCI  32
BRANSON        CLOUDY    39  32  75 NW21G28   29.82R WCI  29

......SURROUNDING SGF CWA......

CITY           SKY/WX    TMP DP  RH WIND       PRES   REMARKS
CHANUTE        CLOUDY    44  32  62 NW20G28   29.96R
PARSONS        CLOUDY    46  32  58 NW22G29   29.97R
COFFEYVILLE    CLOUDY    47  32  56 N23G29    29.96R
EMPORIA        CLOUDY    44  31  60 N18G29    29.98R
SILOAM SPRINGS CLOUDY    45  28  53 NW20G25   29.92R
HARRISON AR    CLOUDY    39  34  82 NW18G28   29.82R WCI  30
NEAR YELLVILLE CLOUDY    43  32  65 NW20G28   29.80R

......KANSAS AND MISSOURI......

CITY           SKY/WX    TMP DP  RH WIND       PRES   REMARKS
KANSAS CTY INT CLOUDY    38  33  82 N15       29.93R WCI  29
DOWNTOWN KC    CLOUDY    40  32  73 N16G25    29.92R WCI  31
COLUMBIA       LGT RAIN  37  36  96 N23G29    29.76R FOG     WCI  26
SEDALIA        FLURRIES  38  35  89 N24G30    29.83R WCI  27
ST JOSEPH      CLOUDY    39  33  79 N18       29.96R WCI  30
ST LOUIS       LGT RAIN  44  40  85 N14       29.66R
SPIRIT OF STL  LGT RAIN  44  41  89 N12       29.66R
KIRKSVILLE     CLOUDY    32  30  92 N18G32    29.86R WCI  20
WICHITA        PTSUNNY   51  29  42 N23G36    30.02R
TOPEKA         CLOUDY    40  32  73 N15G23    29.99R WCI  32
OLATHE         CLOUDY    39  33  79 N15G28    29.91R WCI  31

......TENNESSEE......

CITY           SKY/WX    TMP DP  RH WIND       PRES   REMARKS
MEMPHIS        RAIN      46  42  86 W9G25     29.73R FOG
NASHVILLE      CLOUDY    51  42  71 SW6       29.63S

......ARKANSAS.......

CITY           SKY/WX    TMP DP  RH WIND       PRES   REMARKS
FAYETTEVILLE   CLOUDY    43  32  65 NW21G29   29.89R
FT SMITH       CLOUDY    52  31  44 NW15G33   29.90R
LITTLE ROCK    CLOUDY    56  32  40 W25G41    29.80R

......OKLAHOMA.......

CITY           SKY/WX    TMP DP  RH WIND       PRES   REMARKS
TULSA          CLOUDY    52  32  46 N29G38    29.97R
PONCA CITY     PTSUNNY   53  29  39 N20G31    30.02R
MCALESTER      LGT RAIN  57  30  35 NW22G33   29.97R
OKLAHOMA CITY  MOSUNNY   59  23  25 N31G43    30.02R

......IOWA............

CITY           SKY/WX    TMP DP  RH WIND       PRES   REMARKS
DES MOINES     CLOUDY    35  29  78 N12       29.97R WCI  27
QUAD CITIES    CLOUDY    30  22  72 NE8       29.87R WCI  22

......ILLINOIS........

CITY           SKY/WX    TMP DP  RH WIND       PRES   REMARKS
QUINCY         MIX PCPN  32  29  88 N24       29.77R FOG     WCI  19
CHICAGO        FLURRIES  27  21  78 N21G30    29.86R WCI  13




USA.gov is the U.S. government's official web portal to all federal, state and local government web resources and services.